Printer-friendly version
Follow the MPC on Twitter Follow the MPC on Facebook The MPC blog
Minor Planet Center

MPEC 2007-V95 : 2007 VL184

The following Minor Planet Electronic Circular may be linked-to from your own Web pages, but must not otherwise be redistributed electronically.

A form allowing access to any MPEC is at the bottom of this page.


Read MPEC 2007-V94 Read MPEC 2007-V96


M.P.E.C. 2007-V95                                Issued 2007 Nov. 13, 14:32 UT

     The Minor Planet Electronic Circulars contain information on unusual
         minor planets and routine data on comets.  They are published
   on behalf of Commission 20 of the International Astronomical Union by the
          Minor Planet Center, Smithsonian Astrophysical Observatory,
                          Cambridge, MA 02138, U.S.A.

             Prepared using the Tamkin Foundation Computer Network

                              MPC@CFA.HARVARD.EDU
          URL http://www.cfa.harvard.edu/iau/mpc.html  ISSN 1523-6714

                                  2007 VL184

Observations:
     K07VI4L* C2007 11 12.19963 02 05 01.93 +19 29 09.2          18.3 V EV095703
     K07VI4L  C2007 11 12.20705 02 04 52.14 +19 33 55.8          18.1 V EV095703
     K07VI4L  C2007 11 12.21447 02 04 42.52 +19 38 38.8          18.2 V EV095703
     K07VI4L  C2007 11 12.22193 02 04 32.73 +19 43 23.5          17.8 V EV095703
     K07VI4L  C2007 11 12.30670 02 02 41.53 +20 36 59.9          18.2 V EV095703
     K07VI4L  C2007 11 12.30723 02 02 40.84 +20 37 19.0          18.2 V EV095703
     K07VI4L  C2007 11 12.30775 02 02 40.09 +20 37 38.8          18.2 V EV095703
     K07VI4L  C2007 11 12.30829 02 02 39.44 +20 37 58.8          18.1 V EV095703
     K07VI4L  C2007 11 12.37332 02 01 14.80 +21 18 28.6          18.2 V EV095703
     K07VI4L  C2007 11 12.37384 02 01 14.08 +21 18 48.6          18.2 V EV095703
     K07VI4L  C2007 11 12.37439 02 01 13.36 +21 19 09.2          18.3 V EV095703
     K07VI4L  C2007 11 12.37492 02 01 12.68 +21 19 28.8          18.0 V EV095703
     K07VI4L  C2007 11 12.76863101 53 22.03 +25 16 56.0                 EV095J95
     K07VI4L  C2007 11 12.76983801 53 20.51 +25 17 38.8                 EV095J95
     K07VI4L  C2007 11 12.77105201 53 18.96 +25 18 22.3          18.3 R EV095J95
     K07VI4L  C2007 11 12.77562 01 53 12.39 +25 21 32.0          18.6 V EV095595
     K07VI4L  C2007 11 12.78164 01 53 04.49 +25 25 04.9                 EV095595
     K07VI4L  C2007 11 12.78767 01 52 56.70 +25 28 40.0                 EV095595
     K07VI4L  C2007 11 12.78775 01 52 57.49 +25 28 39.7          18.3 R EV095B04
     K07VI4L  C2007 11 12.79045 01 52 53.99 +25 30 14.8          18.4 R EV095B04
     K07VI4L  C2007 11 12.79316 01 52 50.54 +25 31 50.0          17.9 R EV095B04
     K07VI4L  C2007 11 12.80585 01 52 34.12 +25 39 19.1          18.0 R EV095B04
     K07VI4L  C2007 11 12.89621 01 50 35.11 +26 31 56.6          18.2 R EV095473
     K07VI4L  C2007 11 12.89732 01 50 33.66 +26 32 34.3          18.2 R EV095473
     K07VI4L  C2007 11 12.89852 01 50 32.09 +26 33 15.8          18.3 R EV095473
     K07VI4L  C2007 11 13.16224 01 45 09.14 +29 02 06.1          18.5 V EV095703
     K07VI4L  C2007 11 13.16278 01 45 08.49 +29 02 22.8          18.3 V EV095703
     K07VI4L  C2007 11 13.16330 01 45 07.84 +29 02 40.5          18.5 V EV095703
     K07VI4L  C2007 11 13.32621 01 41 31.84 +30 30 31.3          18.5 V EV095703
     K07VI4L  C2007 11 13.33344 01 41 22.30 +30 34 18.2          18.7 V EV095703
     K07VI4L  C2007 11 13.34068 01 41 12.87 +30 38 05.6          18.4 V EV095703
     K07VI4L  C2007 11 13.34789 01 41 03.26 +30 41 53.5          18.6 V EV095703
     K07VI4L  C2007 11 13.41248 01 39 39.55 +31 15 20.1          18.4 V EV095703
     K07VI4L  C2007 11 13.41297 01 39 38.90 +31 15 34.4          18.4 V EV095703
     K07VI4L  C2007 11 13.41392 01 39 37.74 +31 16 04.1          18.6 V EV095703

Observer details:
473 Remanzacco.  Observers L. Donato, M. Gonano, V. Gonano, E. Guido,
    V. Santini, G. Sostero.  0.45-m f/4.4 Newtonian reflector + CCD.
595 Farra d'Isonzo.  Observers L. Bittesini, G. Lombardi, E. Pettarin,
    F. Piani.  Measurers G. Lombardi, E. Pettarin.  0.40-m f/4.5 reflector
    + CCD.
703 Catalina Sky Survey.  Observer A. R. Gibbs.  Measurers E. C. Beshore,
    A. Boattini, G. J. Garradd, A. R. Gibbs, A. D. Grauer, R. E. Hill,
    R. A. Kowalski, S. M. Larson, R. H. McNaught.  0.68-m Schmidt + CCD.
B04 Saint-Barthelemy Observatory.  Observer A. Carbognani.  0.81-m f/7.9
    reflector + CCD.
J95 Great Shefford.  Observer P. Birtwhistle.  0.40-m f/6.0 Schmidt-Cassegrain
    + CCD.

Orbital elements:
2007 VL184                                               Earth MOID = 0.0395 AU
Epoch 2007 Oct. 27.0 TT = JDT 2454400.5                 MPC
M 357.19345              (2000.0)            P               Q
n   0.66884188     Peri.  348.07756     +0.78769515     -0.50927425
a   1.2949522      Node    48.27981     +0.59649772     +0.48977730
e   0.2076731      Incl.   27.67438     +0.15403513     +0.70764252
P   1.47           H   24.2           G   0.15           U   6
Residuals in seconds of arc
071112 703  0.7+  0.8-    071112 J95  0.1+  0.2-    071112 473  0.4+  0.2-
071112 703  0.6-  1.2+    071112 J95  0.3+  0.4-    071113 703  1.1-  0.8+
071112 703  0.7+  0.0     071112 J95  0.2+  0.1-    071113 703  0.3-  0.3-
071112 703  0.4+  0.7-    071112 595  0.2+  0.2-    071113 703  0.2+  0.1+
071112 703  0.2+  0.7+    071112 595  1.4-  1.0-    071113 703  0.3+  1.1+
071112 703  0.2+  0.1-    071112 595  1.3-  0.4+    071113 703  0.0   0.0
071112 703  0.8-  0.1+    071112 B04  0.4-  1.3+    071113 703  1.0+  0.4-
071112 703  0.0   0.2-    071112 B04  0.6-  0.7+    071113 703  1.0-  1.1+
071112 703  0.3+  0.4-    071112 B04  0.0   0.1-    071113 703  0.1+  0.2-
071112 703  0.4-  0.3+    071112 B04  0.0   0.3+    071113 703  0.2-  1.0-
071112 703  0.5-  0.5+    071112 473  0.3+  0.4+    071113 703  0.6+  0.5-
071112 703  0.4-  0.4+    071112 473  0.4+  0.2-

Ephemeris:
2007 VL184               a,e,i = 1.29, 0.21, 28                  q = 1.0260
Date    TT    R. A. (2000) Decl.     Delta      r     Elong.  Phase     V
2007 11 06    03 53.21   -36 27.0    0.0597   1.027   125.2    52.1    20.1
2007 11 07    03 38.94   -30 56.5    0.0536   1.027   131.3    46.4    19.7
2007 11 08    03 23.36   -23 58.5    0.0483   1.028   138.9    39.4    19.2
2007 11 09    03 06.47   -15 20.6    0.0441   1.028   147.9    30.8    18.8
2007 11 10    02 48.34   -05 07.3    0.0413   1.029   157.8    21.3    18.4
2007 11 11    02 29.13   +06 07.1    0.0403   1.029   166.2    13.3    18.1
2007 11 12    02 09.06   +17 20.9    0.0412   1.030   166.3    13.2    18.1
2007 11 13    01 48.45   +27 31.8    0.0439   1.031   158.7    20.4    18.5
2007 11 14    01 27.65   +36 03.8    0.0481   1.032   150.3    28.4    18.9
2007 11 15    01 07.05   +42 51.7    0.0534   1.032   142.9    35.3    19.4
2007 11 16    00 47.02   +48 08.1    0.0595   1.033   136.8    41.0    19.8
2007 11 17    00 27.85   +52 11.0    0.0662   1.034   131.8    45.5    20.1
2007 11 18    00 09.79   +55 17.4    0.0734   1.035   127.7    49.1    20.4
2007 11 19    23 52.98   +57 41.1    0.0809   1.036   124.4    52.0    20.7
2007 11 20    23 37.50   +59 32.8    0.0886   1.037   121.6    54.3    21.0
2007 11 21    23 23.34   +61 00.4    0.0964   1.038   119.2    56.2    21.2
2007 11 22    23 10.47   +62 09.8    0.104    1.040   117.2    57.7    21.5
2007 11 23    22 58.83   +63 05.4    0.112    1.041   115.5    58.9    21.7
2007 11 24    22 48.32   +63 50.4    0.121    1.042   113.9    60.0    21.8
2007 11 25    22 38.86   +64 27.3    0.129    1.044   112.6    60.8    22.0
2007 11 26    22 30.34   +64 57.8    0.137    1.045   111.5    61.5    22.2

Timothy B. Spahr             (C) Copyright 2007 MPC           M.P.E.C. 2007-V95

Read MPEC 2007-V94 Read MPEC 2007-V96


MPEC number:

Enter an MPEC number in one of the following forms:

  • 1997-B01 (the full form)
  • J97B01 (the packed version of the full form)
  • B01 (the abbreviated form)

Valid HTML 4.01!